Location: Bothwell
(42.3833°S, 147.0000°E)
Time: 12:58:15
(UTC+11:00)

TIGRISAT - Pass Details

Date: 03 October 2023
Orbit: 598 x 676 km, 97.7° (Epoch: 29 November)

Event Time Altitude Azimuth Distance (km) Brightness Sun altitude
Rises 05:28:09 0° 153° (SSE) 3,041 ? -14.4°
Reaches altitude 10° 05:30:57 10° 136° (SE) 2,104 ? -13.9°
Maximum altitude 05:34:21 20° 88° (E) 1,504 ? -13.3°
Drops below altitude 10° 05:37:40 10° 40° (NE) 2,044 ? -12.7°
Sets 05:40:20 0° 23° (NNE) 2,926 ? -12.2°
